EW0123 Weather Reports


time (UTC)temp
C
wind
direction
speed
KPH
gust
KPH
rain 1hr
cm
rain 24hr
cm
rain mn
cm
humidity
%
barometer
mb
20260504001505 26 312 3.2 9.7 0.00 0.00 0.00 41 1012.5
20260504000005 25 306 3.2 14.5 0.00 0.00 0.00 44 1012.7
20260503234505 26 319 1.6 11.3 0.00 0.00 0.00 45 1012.7
20260503233005 26 311 1.6 11.3 0.00 0.00 0.00 47 1012.9
20260503231504 26 318 3.2 9.7 0.00 0.00 0.00 46 1013.1
20260503230004 26 301 4.8 20.9 0.00 0.00 0.00 47 1013.3
20260503224504 26 2 1.6 4.8 0.00 0.00 0.00 43 1013.5
20260503223004 25 335 3.2 11.3 0.00 0.00 0.00 42 1013.7
20260503221504 26 348 3.2 6.4 0.00 0.00 0.00 43 1013.8
20260503211505 26 11 1.6 4.8 0.00 0.00 0.00 50 1014.4
20260503204504 25 335 1.6 8.0 0.00 0.00 0.00 48 1014.8
20260503203005 24 311 3.2 9.7 0.00 0.00 0.00 55 1014.9
20260503200004 23 9 1.6 6.4 0.00 0.00 0.00 57 1015.4
20260503194504 24 349 1.6 6.4 0.00 0.00 0.00 54 1015.4
20260503193005 23 326 3.2 9.7 0.00 0.00 0.00 56 1015.6
20260503191504 23 313 3.2 16.1 0.00 0.00 0.00 58 1015.7
20260503183005 21 50 1.6 4.8 0.00 0.00 0.00 65 1016.3
20260503181505 22 44 1.6 3.2 0.00 0.00 0.00 59 1016.4
20260503173005 21 69 0.0 1.6 0.00 0.00 0.00 62 1016.5
20260503171503 21 8 0.0 1.6 0.00 0.00 0.00 68 1016.6
20260503081504 11 0 0.0 0.0 0.00 0.00 0.00 86 1017.0
20260503071504 12 0 0.0 0.0 0.00 0.00 0.00 85 1016.8
20260503054505 13 0 0.0 0.0 0.00 0.00 0.00 81 1016.5
20260503053004 13 0 0.0 0.0 0.00 0.00 0.00 78 1016.5
20260503051503 14 0 0.0 0.0 0.00 0.00 0.00 75 1016.6
20260503044506 14 0 0.0 0.0 0.00 0.00 0.00 76 1016.4
20260503043006 15 0 0.0 0.0 0.00 0.00 0.00 74 1016.4
20260503040005 16 302 0.0 1.6 0.00 0.00 0.00 69 1016.1
20260503033006 17 302 0.0 1.6 0.00 0.00 0.00 61 1015.6
20260503030005 19 326 1.6 9.7 0.00 0.00 0.00 56 1015.4
20260503024505 20 329 3.2 6.4 0.00 0.00 0.00 53 1015.3
20260503020005 21 335 3.2 6.4 0.00 0.00 0.00 50 1015.4
20260503014505 21 333 3.2 4.8 0.00 0.00 0.00 51 1015.6
20260503013005 22 331 1.6 11.3 0.00 0.00 0.00 51 1015.6
20260503011506 22 2 1.6 4.8 0.00 0.00 0.00 52 1015.6
20260503004505 23 344 1.6 6.4 0.00 0.00 0.00 51 1015.7
20260503003006 23 332 1.6 12.9 0.00 0.00 0.00 48 1015.7